Flag for Cambodia Weather past 2 weeks in Phnom Penh, Cambodia

Now
81 °F

Passing clouds.


Feels Like: 87 °F
Forecast: 77 / 93 °F
Wind: 3 mph from Southwest

Location: Phnom-Penh / Pochentong

Current Time: Sep 24, 2014 at 3:51:56 AM

Latest Report: Sep 24, 2014 at 1:00 AM


Visibility: 6 mi

Pressure: 29.77 "Hg

Humidity: 89%

Dew point: 77 °F

Location of Phnom PenhLocation

Historic Weather in Phnom Penh — Graph

°F

Phnom Penh temperature yesterday

Maximum temperature yesterday: 95 °F (at 2:30 PM)
Minimum temperature yesterday: 79 °F (at 6:00 AM)
Average temperature yesterday: 86 °F

Past Weeks' High & Low Weather Summary

 TemperatureHumidityPressure
High95 °F (Sep 21, 2:30 PM)100% (Sep 10, 8:00 PM)29.86 "Hg (Sep 10, 8:00 PM)
Low77 °F (Sep 16, 4:00 PM)20% (Sep 12, 1:00 AM)29.56 "Hg (Sep 15, 3:30 PM)
Average84 °F77%29.73 "Hg
* Reported Sep 9 1:00 AM — Sep 24 1:00 AM, Phnom Penh, Weather by CustomWeather, © 2014

Note: Actual official high and low records may vary slightly from our data, if they occured in-between our weather recording intervals... More about our weather records

Advertising

Phnom Penh weather history for previous 24 hours

 ConditionsComfort  
Time TempWeatherWind HumidityBarometerVisibility
1:00 AM
Sep 24
81 °FPassing clouds.3 mph89%29.77 "Hg6 mi
12:30 AM81 °FPassing clouds.3 mph94%29.80 "Hg6 mi
12:00 AM81 °FPassing clouds.3 mph94%29.80 "Hg6 mi
11:30 PM
Sep 23
81 °FPassing clouds.5 mph94%29.80 "Hg6 mi
11:00 PM82 °FPassing clouds.3 mph89%29.80 "Hg6 mi
10:30 PM82 °FPassing clouds.3 mph89%29.80 "Hg6 mi
10:00 PM82 °FPassing clouds.3 mph89%29.77 "Hg6 mi
9:30 PM82 °FPassing clouds.2 mph89%29.77 "Hg6 mi
9:00 PM82 °FPassing clouds.2 mph89%29.77 "Hg6 mi
8:30 PM82 °FPassing clouds.3 mph84%29.74 "Hg6 mi
8:00 PM82 °FPassing clouds.3 mph84%29.74 "Hg6 mi
7:30 PM84 °FPassing clouds.N/A79%29.74 "Hg6 mi
7:00 PM84 °FPassing clouds.7 mph79%29.74 "Hg6 mi
6:30 PM84 °FPassing clouds.7 mph79%29.74 "HgN/A
6:00 PM84 °FPassing clouds.9 mph74%29.71 "HgN/A
5:30 PM84 °FScattered clouds.9 mph74%29.71 "HgN/A
5:00 PM84 °FScattered clouds.12 mph74%29.68 "HgN/A
4:30 PM88 °FPartly sunny.14 mph70%29.68 "HgN/A
4:00 PM90 °FPartly sunny.15 mph67%29.68 "HgN/A
3:30 PM93 °FPartly sunny.9 mph53%29.68 "HgN/A
3:00 PM91 °FPartly sunny.9 mph59%29.68 "HgN/A
2:30 PM95 °FPartly sunny.7 mph53%29.68 "HgN/A
2:00 PM91 °FPartly sunny.9 mph59%29.71 "HgN/A
1:30 PM91 °FPartly sunny.7 mph56%29.71 "HgN/A
1:00 PM90 °FPartly sunny.8 mph63%29.74 "HgN/A
12:30 PM90 °FPartly sunny.5 mph63%29.77 "HgN/A
12:00 PM90 °FPartly sunny.6 mph59%29.77 "HgN/A
11:30 AM88 °FScattered clouds.7 mph70%29.77 "HgN/A
11:00 AM90 °FScattered clouds.6 mph67%29.80 "HgN/A
10:30 AM88 °FScattered clouds.3 mph66%29.80 "HgN/A
10:00 AM90 °FScattered clouds.5 mph63%29.80 "HgN/A
9:30 AM88 °FPassing clouds.6 mph66%29.83 "HgN/A
9:00 AM88 °FPassing clouds.7 mph66%29.80 "HgN/A
8:30 AM86 °FPassing clouds.6 mph75%29.80 "HgN/A
8:00 AM84 °FPassing clouds.6 mph74%29.80 "HgN/A
7:30 AM82 °FPassing clouds.3 mph84%29.80 "HgN/A
7:00 AM81 °FPassing clouds.2 mph84%29.80 "HgN/A
6:30 AM81 °FPassing clouds.3 mph84%29.77 "HgN/A
6:00 AM79 °FPassing clouds.1 mph89%29.77 "HgN/A
Weather by CustomWeather, © 2014

See weather overviewHow to use our weather pages